Find Starlink 34251

NORAD ID: 64205 Int'l Des: 2025-117 Owner: SPXS Country: US Constellation: starlink operational
LEOCIRCULAR

Live Position

Loading 3D Globe...

About Starlink 34251

Description loading...

Upcoming Passes

Passes for default location (London). Set your location on the main map for personalized predictions.

Altitude History

Loading altitude history...

Two-Line Element Set

1 64205U 25117C 26106.05707724 .00010536 00000-0 36742-3 0 9990
2 64205 53.1595 226.2567 0000969 102.0550 258.0560 15.30191903 50243
Epoch: Apr 16, 2026 • Age: 12 hours

Current Status

Altitude 478.5 km
Velocity 7.63 km/s
Sub-Earth Point 41.39°N, 34.97°W
Launch Date May 31, 2025
Age 0.8 years
Type internet

Technical Details

Classification Payload
Mass 575.00 kg
Dry Mass 530.00 kg
Total Mass 575.00 kg
Length 0.30 m
Diameter 4.10 m
Span 29.00 m
Shape Box + pan
Manufacturer SPXS
Bus Type Starlink V2MO
Phase Status In Orbit
Owner/State SPXS/US

Most Searched